TimeCST,TemperatureF,Dew PointF,Humidity,Sea Level PressureIn,VisibilityMPH,Wind Direction,Wind SpeedMPH,Gust SpeedMPH,PrecipitationIn,Events,Conditions,WindDirDegrees,DateUTC
12:56 AM,32.0,30.0,92,29.68,4.0,NW,11.5,-,N/A,,Overcast,310,2013-01-29 06:56:00
1:05 AM,32.0,30.2,93,29.63,4.0,NW,13.8,-,N/A,,Overcast,320,2013-01-29 07:05:00
1:56 AM,32.0,28.9,88,29.66,3.0,NW,15.0,21.9,0.00,,Overcast,320,2013-01-29 07:56:00
2:56 AM,30.9,28.0,89,29.69,7.0,NW,11.5,-,0.00,,Overcast,310,2013-01-29 08:56:00
3:56 AM,30.9,28.0,89,29.70,10.0,WNW,9.2,-,N/A,,Overcast,300,2013-01-29 09:56:00
4:56 AM,30.0,27.0,88,29.66,8.0,NNW,12.7,-,N/A,,Overcast,330,2013-01-29 10:56:00
5:56 AM,30.0,27.0,88,29.72,8.0,NW,12.7,20.7,N/A,,Overcast,320,2013-01-29 11:56:00
6:56 AM,30.9,28.0,89,29.71,7.0,NW,17.3,-,N/A,,Overcast,320,2013-01-29 12:56:00
7:56 AM,30.9,28.0,89,29.73,8.0,NNW,12.7,-,N/A,,Overcast,330,2013-01-29 13:56:00
8:56 AM,32.0,28.0,85,29.74,5.0,NNW,12.7,-,N/A,,Overcast,330,2013-01-29 14:56:00
9:56 AM,32.0,28.0,85,29.73,6.0,NNW,17.3,24.2,N/A,,Overcast,340,2013-01-29 15:56:00
10:49 AM,33.8,28.4,81,29.70,9.0,North,16.1,-,N/A,,Overcast,360,2013-01-29 16:49:00
10:56 AM,33.1,28.9,85,29.74,9.0,North,11.5,20.7,N/A,,Overcast,360,2013-01-29 16:56:00
11:56 AM,37.0,30.0,76,29.70,10.0,NNE,20.7,26.5,N/A,,Overcast,20,2013-01-29 17:56:00
12:56 PM,36.0,28.9,76,29.71,10.0,North,15.0,-,N/A,,Overcast,350,2013-01-29 18:56:00
1:16 PM,35.6,28.4,75,29.67,10.0,North,13.8,-,N/A,,Overcast,360,2013-01-29 19:16:00
1:56 PM,35.1,28.9,78,29.70,5.0,North,13.8,-,0.00,Snow,Light Snow,350,2013-01-29 19:56:00
2:03 PM,35.6,28.4,75,29.66,6.0,North,13.8,-,0.00,Snow,Light Snow,360,2013-01-29 20:03:00
2:31 PM,35.6,28.4,75,29.66,10.0,North,12.7,-,0.00,,Overcast,350,2013-01-29 20:31:00
2:56 PM,35.1,28.9,78,29.68,4.0,North,15.0,-,0.00,Snow,Light Snow,350,2013-01-29 20:56:00
3:21 PM,35.6,28.4,75,29.65,6.0,North,15.0,-,0.00,,Haze,360,2013-01-29 21:21:00
3:56 PM,35.1,28.0,76,29.69,7.0,North,13.8,-,0.00,,Overcast,350,2013-01-29 21:56:00
4:56 PM,34.0,28.0,79,29.71,6.0,North,9.2,-,N/A,,Haze,350,2013-01-29 22:56:00
5:56 PM,33.1,27.0,78,29.73,8.0,NNW,12.7,-,N/A,,Overcast,340,2013-01-29 23:56:00
6:56 PM,33.1,25.0,72,29.74,10.0,North,18.4,-,N/A,,Overcast,350,2013-01-30 00:56:00
7:56 PM,32.0,24.1,73,29.75,10.0,NNW,19.6,25.3,N/A,,Overcast,340,2013-01-30 01:56:00
8:56 PM,30.9,24.1,76,29.77,10.0,North,19.6,26.5,N/A,,Overcast,350,2013-01-30 02:56:00
9:56 PM,30.0,23.0,75,29.74,10.0,North,19.6,26.5,N/A,,Overcast,350,2013-01-30 03:56:00
10:56 PM,28.0,21.0,75,29.79,10.0,NNW,26.5,33.4,N/A,,Overcast,340,2013-01-30 04:56:00
11:20 PM,24.8,19.4,80,29.77,9.0,NNW,21.9,32.2,N/A,,Overcast,340,2013-01-30 05:20:00
11:56 PM,23.0,18.0,81,29.82,8.0,NNW,23.0,35.7,N/A,,Overcast,340,2013-01-30 05:56:00